This demonstration page uses our WeatherBlox Daily Observations layout. Learn more.

Left ArrowRight Arrow

Hourly Observations for August 18, 2015

Temp ( °F °C ) Dew Point ( °F °C ) Humidity (%) Winds ( mph kmh ) Pressure ( in mb ) Visibility ( mi km ) Precip ( " mm )
12:51 am 00:51 Clear 78 25.8 73 22.5 82 82 WNW 16 26 30.00 1016 10 16 0.00 0.00
1:51 am 01:51 Clear 84 28.9 59 15 43 43 NW 14 22 29.70 1006 10 16 0.00 0.00
2:51 am 02:51 Clear 83 28.3 59 15 44 44 NW 12 19 29.71 1006 10 16 0.00 0.00
3:51 am 03:51 Clear 82 27.8 58 14.4 44 44 NW 13 20 29.72 1006 10 16 0.00 0.00
4:51 am 04:51 Clear 80 26.7 59 15 49 49 NNW 8 13 29.73 1007 10 16 0.00 0.00
5:51 am 05:51 Sunny 78 25.6 59 15 52 52 NNW 10 17 29.75 1007 10 16 0.00 0.00
6:51 am 06:51 Sunny 83 28.3 59 15 44 44 NW 15 24 29.76 1008 10 16 0.00 0.00
7:51 am 07:51 Sunny 86 30 58 14.4 39 39 NW 16 26 29.76 1008 10 16 0.00 0.00
8:51 am 08:51 Sunny 88 31.1 58 14.4 36 36 NW 16 26 29.75 1008 10 16 0.00 0.00
9:51 am 09:51 Sunny 82 27.8 51 10.6 34 34 NW 18 30 29.76 1008 10 16 0.00 0.00
10:51 am 10:51 Sunny 94 34.4 56 13.3 28 28 NW 17 28 29.73 1007 10 16 0.00 0.00
11:51 am 11:51 Sunny 96 35.6 56 13.3 26 26 NW 20 31 29.70 1006 10 16 0.00 0.00
12:51 pm 12:51 Sunny 99 37.2 55 12.8 23 23 WNW 21 33 29.67 1005 10 16 0.00 0.00
1:51 pm 13:51 Sunny 99 37.2 67 19.4 35 35 WNW 20 31 29.73 1007 10 16 0.00 0.00
2:51 pm 14:51 Sunny 102 38.9 51 10.6 18 18 WNW 20 31 29.61 1003 10 16 0.00 0.00
3:51 pm 15:51 Sunny 101 38.3 48 8.9 17 17 W 18 30 29.60 1002 10 16 0.00 0.00
4:51 pm 16:51 Sunny 100 37.8 47 8.3 16 16 WNW 24 39 29.59 1002 10 16 0.00 0.00
5:51 pm 17:51 Sunny 80 26.7 72 22.2 76 76 WNW 21 33 29.95 1014 10 16 0.02 0.51
6:51 pm 18:51 Sunny 94 34.4 46 7.8 19 19 WNW 21 33 29.61 1003 10 16 0.00 0.00
7:51 pm 19:51 Clear 90 32.2 47 8.3 23 23 NW 22 35 29.62 1003 10 16 0.00 0.00
8:51 pm 20:51 Clear 89 31.7 47 8.3 23 23 NW 20 31 29.64 1004 10 16 0.00 0.00
9:51 pm 21:51 Clear 89 31.7 48 8.9 24 24 NW 21 33 29.64 1004 10 16 0.00 0.00
10:51 pm 22:51 Clear 88 31.1 50 10 27 27 NW 21 33 29.64 1004 10 16 0.00 0.00
11:51 pm 23:51 Clear 84 28.9 50 10 31 31 WNW 13 20 29.66 1004 10 16 0.00 0.00

Powered by AerisWeather